ABB ROA 2006-2018 | ABB

Current and historical return on assets (ROA) values for ABB (ABB) over the last 10 years. Return on assets can be defined as an indicator of how profitable a company is relative to its total assets. Calculated by dividing a company's operating earnings by its total assets. ABB ROA for the three months ending September 30, 2018 was 6.57%.
ABB ROA - Return on Assets Historical Data
Date TTM Net Income Total Assets Return on Assets
2018-09-30 $2.25B $44.65B 5.09%
2018-06-30 $2.22B $45.19B 5.08%
2018-03-31 $2.06B $43.57B 4.85%
2017-12-31 $2.21B $43.46B 5.31%
2017-09-30 $2.25B $42.41B 5.53%
2017-06-30 $2.24B $40.48B 5.58%
2017-03-31 $2.12B $40.31B 5.23%
2016-12-31 $1.90B $39.20B 4.64%
2016-09-30 $1.68B $40.81B 4.04%
2016-06-30 $1.69B $42.00B 4.04%
2016-03-31 $1.87B $41.81B 4.46%
2015-12-31 $1.93B $41.36B 4.58%
2015-09-30 $2.41B $41.77B 5.59%
2015-06-30 $2.57B $42.69B 5.82%
2015-03-31 $2.61B $43.14B 5.78%
2014-12-31 $2.59B $44.85B 5.56%
2014-09-30 $2.44B $45.78B 5.14%
2014-06-30 $2.54B $47.08B 5.31%
2014-03-31 $2.67B $48.79B 5.62%
2013-12-31 $2.79B $48.06B 5.91%
2013-09-30 $2.87B $47.43B 6.04%
2013-06-30 $2.79B $45.51B 5.90%
2013-03-31 $2.68B $47.70B 5.68%
2012-12-31 $2.70B $49.07B 5.87%
2012-09-30 $2.93B $46.94B 6.70%
2012-06-30 $2.96B $45.34B 7.04%
2012-03-31 $3.20B $43.01B 7.86%
2011-12-31 $3.17B $39.65B 8.04%
2011-09-30 $3.04B $40.25B 7.87%
2011-06-30 $3.02B $39.87B 8.09%
2011-03-31 $2.75B $37.94B 7.68%
2010-12-31 $2.56B $36.30B 7.33%
2010-09-30 $2.40B $35.30B 6.95%
2010-06-30 $2.66B $33.78B 7.75%
2010-03-31 $2.71B $34.33B 7.90%
2009-12-31 $2.90B $34.73B 8.59%
2009-09-30 $2.57B $34.43B 7.72%
2009-06-30 $2.47B $33.86B 7.51%
2009-03-31 $2.77B $32.03B 8.40%
2008-12-31 $3.12B $33.01B 9.36%
2008-09-30 $4.51B $32.52B 13.76%
2008-06-30 $4.32B $34.16B 13.54%
2008-03-31 $4.08B $33.49B 13.54%
2007-12-31 $3.61B $31.00B 12.76%
2007-09-30 $2.43B $29.02B 9.04%
2007-06-30 $2.09B $26.91B 8.14%
2007-03-31 $1.72B $26.25B 6.95%
2006-12-31 $1.39B $25.14B 5.79%
2006-09-30 $1.19B $24.18B 5.11%
2006-06-30 $0.98B $23.54B 4.26%
2006-03-31 $0.74B $23.10B 3.23%
2005-12-31 $0.74B $22.28B 3.20%
Sector Industry Market Cap Revenue
Industrial Products Electrical Machinery $41.596B $34.312B
ABB Ltd, headquartered in Zurich, Switzerland, is engaged in providing power and automation technologies for its utility and industrial customers. The Company provides a range of products, systems, solutions and services that are designed to improve power grid reliability, increase industrial productivity and enhance energy efficiency. ABB is focused on power transmission, distribution and power-plant automation and serves electric, gas and water utilities, as well as industrial and commercial customers. Its Power Products division manufactures three categories of products: High-voltage Products, Medium-voltage Products and Transformers. The key technologies include high- and medium-voltage switchgear, circuit breakers for various current and voltage levels, power and distribution transformers, as well as sensors and products to automate and control electrical and other utility networks. ABB Ltd is structured into four regions: Europe, the Americas, Asia and the Middle East and Africa (MEA).
Stock Name Country Market Cap PE Ratio
Emerson Electric (EMR) United States $39.874B 20.48
Eaton (ETN) Ireland $31.148B 13.79
A O Smith (AOS) United States $8.159B 19.44
Enersys (ENS) United States $3.574B 17.55
Regal Beloit (RBC) United States $3.288B 13.26
Rexnord (RXN) United States $2.643B 15.21
II-VI (IIVI) United States $2.185B 20.34
Franklin Electric (FELE) United States $2.169B 21.48
ESCO Technologies (ESE) United States $1.710B 23.91
SPX FLOW (FLOW) United States $1.429B 15.27
AZZ (AZZ) United States $1.194B 25.86
Powell Industries (POWL) United States $0.334B 0.00
Plug Power (PLUG) United States $0.322B 0.00
Energous (WATT) United States $0.186B 0.00
Capstone Turbine (CPST) United States $0.066B 0.00
UQM TECHNOLOGIES INC (UQM) United States $0.061B 0.00
CUI Global (CUI) United States $0.048B 0.00
Pioneer Power Solutions (PPSI) United States $0.045B 8.88
LGL (LGL) United States $0.033B 30.04
American Electric Technologies (AETI) United States $0.008B 0.00
Ideal Power (IPWR) United States $0.005B 0.00